Home > Weather > Port Angeles > Past weeks

Flag for USA Past Weather in Port Angeles, Washington, USA — Yesterday and Last 2 Weeks

Now
55 °F

Clear.


Feels Like: 51 °F
Forecast: 55 / 67 °F
Wind: 16 mph from West

Location: William R. Fairchild International Airport

Current Time: Jun 29, 2016 at 11:46:10 PM

Latest Report: Jun 29, 2016 at 10:53 PM


Visibility: 10 mi

Pressure: 30.18 "Hg

Humidity: 80%

Dew Point: 49 °F

Location of Port AngelesLocation

Past Weather in Port Angeles — Graph

°F

Port Angeles Temperature Yesterday

Maximum temperature yesterday: 66 °F (at 1:53 PM)
Minimum temperature yesterday: 54 °F (at 1:53 AM)
Average temperature yesterday: 59 °F

High & Low Weather Summary for the Past Weeks

 TemperatureHumidityPressure
High76 °F (Jun 26, 3:53 PM)97% (Jun 23, 4:53 AM)30.41 "Hg (Jun 23, 4:53 AM)
Low43 °F (Jun 15, 4:53 AM)36% (Jun 26, 3:53 PM)29.92 "Hg (Jun 23, 4:53 AM)
Average57 °F76%30.15 "Hg
* Reported Jun 14 9:53 PM — Jun 29 9:53 PM, Port Angeles, Weather by CustomWeather, © 2016

Note: Actual official high and low records may vary slightly from our data, if they occured in-between our weather recording intervals... More about our weather records

Advertising

Port Angeles Weather History for the Previous 24 Hours

Scroll right to see more
 ConditionsComfort  
Time TempWeatherWind HumidityBarometerVisibility
9:53 PM
Wed, Jun 29
56 °FSunny.15 mph77%30.19 "Hg10 mi
8:53 PM56 °FSunny.20 mph77%30.17 "Hg10 mi
7:53 PM58 °FSunny.16 mph75%30.17 "Hg10 mi
6:53 PM60 °FSunny.20 mph69%30.16 "Hg10 mi
5:53 PM61 °FSunny.18 mph70%30.16 "Hg10 mi
4:53 PM61 °FSunny.18 mph72%30.16 "Hg10 mi
3:53 PM63 °FSunny.14 mph68%30.18 "Hg10 mi
2:53 PM63 °FSunny.14 mph68%30.18 "Hg10 mi
1:53 PM62 °FPassing clouds.13 mph73%30.19 "Hg10 mi
12:53 PM62 °FOvercast.13 mph73%30.20 "Hg10 mi
11:53 AM62 °FPartly sunny.9 mph73%30.21 "Hg10 mi
10:53 AM60 °FOvercast.8 mph78%30.21 "Hg10 mi
9:53 AM58 °FLow clouds.7 mph81%30.21 "Hg10 mi
8:53 AM58 °FLow clouds.8 mph81%30.21 "Hg10 mi
7:53 AM56 °FPartly sunny.8 mph87%30.20 "Hg10 mi
6:53 AM55 °FLow clouds.12 mph90%30.20 "Hg10 mi
5:53 AM54 °FPassing clouds.10 mph93%30.19 "Hg10 mi
4:53 AM54 °FPassing clouds.13 mph90%30.18 "Hg10 mi
3:53 AM54 °FClear.13 mph90%30.17 "Hg10 mi
2:53 AM54 °FClear.13 mph93%30.17 "Hg10 mi
2:03 AM54 °FPassing clouds.12 mph93%30.17 "Hg10 mi
1:53 AM55 °FPassing clouds.14 mph90%30.17 "Hg10 mi
12:53 AM55 °FLow clouds.15 mph90%30.16 "Hg10 mi
11:53 PM
Tue, Jun 28
55 °FLow clouds.14 mph90%30.16 "Hg10 mi
Weather by CustomWeather, © 2016

See weather overviewHow to use our weather pages